| time (UTC) | temp F | wind direction | speed knots | gust knots | rain 1hr in | rain 24hr in | rain mn in | humidity % | barometer mb |
| 20260506031640 | 45 | 260 | 20.9 | 26.9 | 0.00 | 0.00 | 0.00 | 93 | |
| 20260506021639 | 45 | 260 | 20.0 | 26.1 | 0.00 | 0.00 | 0.00 | 93 | |
| 20260506011740 | 45 | 250 | 20.0 | 26.9 | 0.00 | 0.00 | 0.00 | 93 | |
| 20260506001639 | 45 | 250 | 14.8 | 21.7 | 0.00 | 0.00 | 0.00 | 93 | |
| 20260505231639 | 45 | 260 | 13.9 | 0.0 | 0.00 | 0.00 | 0.00 | 93 | |
| 20260505221638 | 45 | 260 | 11.3 | 0.0 | 0.00 | 0.00 | 0.00 | 99 | |
| 20260505211656 | 45 | 310 | 10.4 | 0.0 | 0.00 | 0.00 | 0.00 | 99 | |
| 20260505201655 | 45 | 260 | 24.3 | 33.9 | 0.00 | 0.00 | 0.00 | 99 | |
| 20260505191656 | 50 | 70 | 12.2 | 0.0 | 0.00 | 0.00 | 0.00 | 93 | |
| 20260505181639 | 50 | 60 | 8.7 | 14.8 | 0.00 | 0.00 | 0.00 | 93 | |
| 20260505171639 | 50 | 30 | 12.2 | 0.0 | 0.00 | 0.00 | 0.00 | 99 | |
| 20260505161739 | 50 | 20 | 11.3 | 0.0 | 0.00 | 0.00 | 0.00 | 99 | |
| 20260505151638 | 52 | 30 | 8.7 | 0.0 | 0.00 | 0.00 | 0.00 | 93 | |
| 20260505121639 | 57 | 360 | 8.7 | 0.0 | 0.00 | 0.00 | 0.00 | 71 | |
| 20260505111638 | 54 | 360 | 10.4 | 0.0 | 0.00 | 0.00 | 0.00 | 81 | |
| 20260505101639 | 61 | 90 | 6.1 | 0.0 | 0.00 | 0.00 | 0.00 | 67 | |
| 20260505091639 | 59 | 100 | 6.1 | 0.0 | 0.00 | 0.00 | 0.00 | 67 | |
| 20260505081639 | 54 | 80 | 7.0 | 0.0 | 0.00 | 0.00 | 0.00 | 81 | |
| 20260505071638 | 50 | 30 | 7.8 | 0.0 | 0.00 | 0.00 | 0.00 | 87 | |
| 20260505061639 | 48 | 20 | 8.7 | 0.0 | 0.00 | 0.00 | 0.00 | 87 | |
| 20260505051639 | 48 | 40 | 7.0 | 0.0 | 0.00 | 0.00 | 0.00 | 87 | |
| 20260505041639 | 50 | 60 | 8.7 | 0.0 | 0.00 | 0.00 | 0.00 | 76 |